FLOCK 4V-10 (46296 NORAD) Tracking and Keplerian Element Data

This shows tracking and keplerian element data for the satellite.

Feedback or suggestion? Click here.




ElementValue
Catalog46296
NameFLOCK 4V-10
Epoch Orbit301
Epoch Day267.48238005
Epoch Year2020
RAAN340.2514
Inclination97.5181
Eccentricity0.0001109
Argument of Perigee124.6183
Mean Anonmoly235.5151
Mean Motion15.10448645
Decay Rate3.91E-06
L11 46296U 20061AA 20267.48238005 .00000391 00000-0 27573-4 0 9994
L22 46296 97.5181 340.2514 0001109 124.6183 235.5151 15.10448645 3019

Live tracking and technical data element details for FLOCK 4V-10 (NORAD 46296). FLOCK 4V-10 can be tracked NOW for your location showing map with azimuth and elevation plus other details from your city location.

Track the satellite on the map from your city or location and see movement details for azimuth, elevation, latitude, longitude, range, height, and movement on the map or in text.







IsCatalogInMostPopularTable: catalog: 46296, numindb: 1
Update: records affected: 1



GetName: 46296 FLOCK 4V-10

Hit Count: updated at: Thu, 24 Sep 2020 17:00:40 GMT